Skip Page Navigation
NASA JPL Caltech
NASA Logo - Jet Propulsion Laboratory + View the NASA Portal
+ Center for Near-Earth Object Studies
JPL Home Earth Solar System Stars & Galaxies Technology
JPL Solar System Dynamics
BODIES ORBITS EPHEMERIDES TOOLS PHYSICAL DATA DISCOVERY FAQ SITE MAP
IMPORTANT: The SSD Announcement email list is now available. Major changes are coming in the near future, including possible hostname and/or URL changes. To be notified of such changes, subscribe to this email list.

Please visit this page for more details.


JPL Small-Body Database Browser
Search: [ help ]  
37307 (2001 LG16)
Classification: Main-belt Asteroid          SPK-ID: 2037307
Ephemeris | Orbit Diagram | Orbital Elements | Mission Design | Physical Parameters | Discovery Circumstances | Close-Approach Data ]

[ show orbit diagram ]
Orbital Elements at Epoch 2459000.5 (2020-May-31.0) TDB
Reference: JPL 19 (heliocentric ecliptic J2000)
 Element Value Uncertainty (1-sigma)   Units 
e .1224754278074109 4.2472e-08  
a 2.168040833251879 8.2037e-09 au
q 1.90250910469542 9.0588e-08 au
i 4.888332070983555 4.7781e-06 deg
node 254.0921037272042 5.3262e-05 deg
peri 352.1546349907654 5.7215e-05 deg
M .7763726484249824 2.2715e-05 deg
tp 2458997.985409102135
(2020-May-28.48540910)
7.3567e-05 TDB
period 1166.002853227528
3.19
6.6181e-06
1.812e-08
d
yr
n .3087471004067529 1.7524e-09 deg/d
Q 2.433572561808339 9.2085e-09 au
  Orbit Determination Parameters
   # obs. used (total)      778  
   data-arc span      21670 days (59.33 yr)  
   first obs. used      1960-09-29  
   last obs. used      2020-01-28  
   planetary ephem.      DE431  
   SB-pert. ephem.      SB431-N16  
   condition code      0  
   norm. resid. RMS      .5428  
   source      ORB  
   producer      Otto Matic  
   solution date      2020-Feb-23 04:29:03  

Additional Information
 Earth MOID = .889002 au 
 Jupiter MOID = 2.58621 au 
 T_jup = 3.677 
[ show covariance matrix ]

Ephemeris | Orbit Diagram | Orbital Elements | Mission Design | Physical Parameters | Discovery Circumstances | Close-Approach Data ]

Physical Parameter Table
Parameter Symbol Value Units Sigma Reference Notes
absolute magnitude H 15.8   n/a MPO253614  
diameter diameter 1.699 km 0.315 urn:nasa:pds:neowise_diameters_albedos::2.0[mainbelt] (http://adsabs.harvard.edu/abs/2011ApJ...741...68M)  
geometric albedo albedo 0.352   0.130 urn:nasa:pds:neowise_diameters_albedos::2.0[mainbelt] (http://adsabs.harvard.edu/abs/2011ApJ...741...68M)  

37307 (2001 LG16)          Discovered 2001-Jun-13 by JPL/NEAT at Haleakala
Reference: 20020227/Numbers.arcLast Updated: 2004-04-19

[ show close-approach data ]
Alternate Designations
 2001 LG16 = 1998 QL12 = 2000 AH147 
Ephemeris | Orbit Diagram | Orbital Elements | Mission Design | Physical Parameters | Discovery Circumstances | Close-Approach Data ]
ABOUT SSD CREDITS/AWARDS PRIVACY/COPYRIGHT GLOSSARY LINKS
FirstGov 2020-Apr-06 16:21 UT
(server date/time)  
NASA Home Page
Site Manager:   Ryan S. Park
Webmaster  Alan B. Chamberlin